Flag for Chile Weather past 2 weeks in Puerto Williams, Chile

Now
32 °F

Chilly.


Feels Like: 20 °F
Forecast: 29 / 34 °F
Wind: 20 mph from West

Location: Rio Gallegos Aerodrome

Current Time: Jul 23, 2014 at 3:35:32 AM

Latest Report: Jul 23, 2014 at 2:00 AM


Visibility: N/A

Pressure: 29.53 "Hg

Humidity: 93%

Dew point: 30 °F

Location of Puerto WilliamsLocation

Historic Weather in Puerto Williams — Graph

°F

Puerto Williams temperature yesterday

Maximum temperature yesterday: 41 °F (at 12:00 PM)
Minimum temperature yesterday: 32 °F (at 12:00 AM)
Average temperature yesterday: 35 °F

Past Weeks' High & Low Weather Summary

 TemperatureHumidityPressure
High54 °F (Jul 14, 2:00 PM)100% (Jul 10, 8:00 AM)30.24 "Hg (Jul 10, 8:00 AM)
Low18 °F (Jul 11, 5:00 AM)42% (Jul 10, 1:00 PM)29.33 "Hg (Jul 20, 4:00 AM)
Average35 °F80%29.79 "Hg
* Reported Jul 8 2:00 AM — Jul 23 2:00 AM, Puerto Williams, Weather by CustomWeather, © 2014

Note: Actual official high and low records may vary slightly from our data, if they occured in-between our weather recording intervals... More about our weather records

Advertising

Puerto Williams weather history for previous 24 hours

 ConditionsComfort  
Time TempWeatherWind HumidityBarometerVisibility
2:00 AM
Jul 23
32 °FChilly.20 mph93%29.53 "HgN/A
1:00 AM34 °FPartly cloudy.17 mph93%29.50 "HgN/A
12:00 AM34 °FLight snow. Partly cloudy.14 mph87%29.50 "Hg4 mi
11:00 PM
Jul 22
34 °FPassing clouds.16 mph81%29.50 "HgN/A
10:00 PM34 °FClear.25 mph81%29.50 "Hg10 mi
9:00 PM34 °FClear.21 mph70%29.53 "Hg10 mi
8:00 PM34 °FClear.21 mph65%29.53 "Hg10 mi
12:00 PM41 °FPassing clouds.22 mph61%29.59 "HgN/A
11:00 AM37 °FSunny.16 mph70%29.56 "Hg10 mi
10:00 AM36 °FScattered clouds.14 mph81%29.53 "HgN/A
9:00 AM36 °FScattered clouds.16 mph81%29.56 "HgN/A
8:00 AM36 °FScattered clouds.16 mph65%29.56 "HgN/A
7:00 AM36 °FClear.17 mph65%29.53 "Hg10 mi
6:00 AM36 °FPassing clouds.14 mph70%29.53 "HgN/A
5:00 AM36 °FClear.18 mph65%29.56 "Hg10 mi
4:00 AM36 °FClear.17 mph65%29.56 "Hg10 mi
3:00 AM34 °FClear.13 mph75%29.59 "Hg10 mi
Weather by CustomWeather, © 2014

See weather overviewHow to use our weather pages